Orbital Elements at Epoch 2459000.5 (2020-May-31.0) TDB
Reference: JPL 13 (heliocentric ecliptic J2000)
Element | Value | Uncertainty (1-sigma) | Units |
e | .06078267549749629 | 4.9148e-08 | |
a | 2.319792273381193 | 1.3646e-08 | au |
q | 2.178789092406665 | 1.1426e-07 | au |
i | .5107755772499967 | 5.2109e-06 | deg |
node | 305.9599504028173 | 0.00052728 | deg |
peri | 199.0614292308058 | 0.00052891 | deg |
M | 123.8466474305586 | 4.0429e-05 | deg |
tp | 2458556.529793339685 (2019-Mar-14.02979334) | 0.00014464 | TDB |
period | 1290.541792722571 3.53 | 1.1387e-05 3.118e-08 | d yr |
n | .2789526089198024 | 2.4614e-09 | deg/d |
Q | 2.460795454355722 | 1.4476e-08 | au |
|
| | Orbit Determination Parameters
Additional Information
|